Silver City, NM

8:42 AM MDT on March 30, 2017 (GMT -0600)
Grant County

Weather History for KSVC - January, 2013

Change the Weather History Date:

Friday, January 11, 2013

  Actual Average (KDMN) Record (KDMN)
Temperature  
Mean Temperature 34 °F -  
Max Temperature 46 °F 58 °F 72 °F (1990)
Min Temperature 23 °F 24 °F -4 °F (1962)
Degree Days  
Heating Degree Days 30    
Moisture  
Dew Point 11 °F    
Average Humidity 38    
Maximum Humidity 75    
Minimum Humidity 20    
Precipitation  
Precipitation 0.00 in - - ()
Sea Level Pressure  
Sea Level Pressure 29.85 in    
Wind  
Wind Speed 22 mph (WNW)    
Max Wind Speed 41 mph    
Max Gust Speed 51 mph    
Visibility 10 miles    
Events      
Averages and records for this station are not official NWS values.
T = Trace of Precipitation, MM = Missing Value Source: NWS Daily Summary

Daily Weather History Graph

Daily Weather History Graph

Search for Another Location

Airport or City:

Trip Planner

Search our weather history database for the weather conditions in past years. The results will help you decide how hot, cold, wet, or windy it might be!

Date:

Astronomy

Jan. 11, 2013 Rise Set
Actual Time 7:15 AM MST 5:26 PM MST
Civil Twilight 6:48 AM MST 5:53 PM MST
Nautical Twilight 6:18 AM MST 6:23 PM MST
Astronomical Twilight 5:48 AM MST 6:53 PM MST
Moon 6:53 AM MST (1/11) 5:44 PM MST (1/11)
Length of Visible Light 11h 04m
Length of Day
10h 10m
Waning Crescent, 0% of the Moon is Illuminated
Jan 11
Waning Crescent
Jan 11
New
Jan 18
First Quarter
Jan 26
Full
Feb 3
Last Quarter

Hourly Weather History & Observations

Time (MST) Temp. Windchill Dew Point Humidity Pressure Visibility Wind Dir Wind Speed Gust Speed Precip Events Conditions
12:15 AM 46.4 °F 39.5 °F 19.4 °F 34% 29.85 in 10.0 mi SSW 17.3 mph 20.7 mph N/A   Mostly Cloudy
12:35 AM 46.4 °F 39.0 °F 17.6 °F 32% 29.85 in 10.0 mi SSW 19.6 mph 24.2 mph N/A   Mostly Cloudy
12:55 AM 46.4 °F 40.1 °F 19.4 °F 34% 29.85 in 10.0 mi SSW 15.0 mph - N/A   Scattered Clouds
1:15 AM 46.4 °F 39.8 °F 19.4 °F 34% 29.85 in 10.0 mi SSW 16.1 mph - N/A   Mostly Cloudy
1:35 AM 46.4 °F 39.0 °F 15.8 °F 29% 29.84 in 10.0 mi SW 19.6 mph 28.8 mph N/A   Overcast
1:55 AM 46.4 °F 38.5 °F 15.8 °F 29% 29.84 in 10.0 mi SW 21.9 mph 29.9 mph N/A   Overcast
2:15 AM 46.4 °F 38.5 °F 15.8 °F 29% 29.83 in 10.0 mi SW 21.9 mph 31.1 mph N/A   Overcast
2:35 AM 46.4 °F 38.7 °F 15.8 °F 29% 29.83 in 10.0 mi SW 20.7 mph 26.5 mph N/A   Overcast
2:55 AM 46.4 °F 39.5 °F 15.8 °F 29% 29.83 in 10.0 mi SW 17.3 mph 24.2 mph N/A   Overcast
3:15 AM 44.6 °F 38.4 °F 15.8 °F 31% 29.82 in 10.0 mi SW 12.7 mph - N/A   Scattered Clouds
3:35 AM 44.6 °F 38.4 °F 15.8 °F 31% 29.82 in 10.0 mi WSW 12.7 mph - N/A   Clear
3:55 AM 44.6 °F 36.4 °F 14.0 °F 29% 29.80 in 10.0 mi WSW 20.7 mph 29.9 mph N/A   Partly Cloudy
4:15 AM 44.6 °F 36.4 °F 14.0 °F 29% 29.80 in 10.0 mi West 20.7 mph 32.2 mph N/A   Scattered Clouds
4:35 AM 41.0 °F 31.6 °F 21.2 °F 45% 29.80 in 10.0 mi West 20.7 mph 38.0 mph N/A   Partly Cloudy
5:15 AM 37.4 °F 25.9 °F 24.8 °F 60% 29.81 in 10.0 mi WNW 25.3 mph 32.2 mph N/A   Clear
5:35 AM 35.6 °F 23.2 °F 26.6 °F 70% 29.81 in 10.0 mi WNW 26.5 mph 29.9 mph N/A   Clear
5:55 AM 33.8 °F 20.5 °F 24.8 °F 70% 29.82 in 10.0 mi WNW 27.6 mph 36.8 mph N/A   Clear
6:15 AM 32.0 °F 17.4 °F 24.8 °F 75% 29.82 in 10.0 mi WNW 31.1 mph 35.7 mph N/A   Clear
6:35 AM 32.0 °F 18.1 °F 24.8 °F 75% 29.84 in 10.0 mi WNW 27.6 mph 43.7 mph N/A   Clear
6:55 AM 32.0 °F 17.4 °F 23.0 °F 69% 29.85 in 10.0 mi WNW 31.1 mph 40.3 mph N/A   Clear
7:15 AM 30.2 °F 15.9 °F 23.0 °F 75% 29.86 in 10.0 mi NW 26.5 mph 36.8 mph N/A   Clear
7:35 AM 30.2 °F 15.9 °F 21.2 °F 69% 29.86 in 10.0 mi NW 26.5 mph 29.9 mph N/A   Clear
7:55 AM 30.2 °F 16.5 °F 19.4 °F 64% 29.87 in 10.0 mi WNW 24.2 mph 32.2 mph N/A   Clear
8:15 AM 32.0 °F 17.0 °F 15.8 °F 51% 29.86 in 10.0 mi NW 33.4 mph 41.4 mph N/A   Clear
8:35 AM 32.0 °F 15.6 °F 14.0 °F 48% 29.84 in 10.0 mi NW 41.4 mph 46.0 mph N/A   Clear
9:15 AM 32.0 °F 16.2 °F 14.0 °F 48% 29.87 in 10.0 mi WNW 38.0 mph 50.6 mph N/A   Clear
9:35 AM 33.8 °F 18.3 °F 14.0 °F 44% 29.87 in 10.0 mi WNW 40.3 mph 47.2 mph N/A   Clear
9:55 AM 33.8 °F 18.6 °F 12.2 °F 41% 29.88 in 10.0 mi WNW 38.0 mph 46.0 mph N/A   Clear
10:15 AM 35.6 °F 21.7 °F 10.4 °F 35% 29.89 in 10.0 mi NW 34.5 mph 43.7 mph N/A   Clear
10:35 AM 35.6 °F 21.3 °F 10.4 °F 35% 29.88 in 9.0 mi WNW 36.8 mph 46.0 mph N/A   Clear
10:55 AM 35.6 °F 21.9 °F 10.4 °F 35% 29.89 in 10.0 mi WNW 33.4 mph 40.3 mph N/A   Clear
11:15 AM 37.4 °F 24.8 °F 10.4 °F 33% 29.89 in 9.0 mi WNW 31.1 mph 42.6 mph N/A   Clear
11:35 AM 37.4 °F 25.2 °F 10.4 °F 33% 29.88 in 10.0 mi WNW 28.8 mph 39.1 mph N/A   Clear
11:55 AM 39.2 °F 27.6 °F 10.4 °F 31% 29.88 in 10.0 mi WNW 28.8 mph 41.4 mph N/A   Clear
12:15 PM 39.2 °F 27.2 °F 10.4 °F 31% 29.86 in 10.0 mi WNW 31.1 mph 42.6 mph N/A   Clear
12:35 PM 39.2 °F 28.5 °F 8.6 °F 28% 29.86 in 10.0 mi WNW 24.2 mph 35.7 mph N/A   Clear
12:55 PM 39.2 °F 26.8 °F 8.6 °F 28% 29.85 in 10.0 mi WNW 33.4 mph 41.4 mph N/A   Clear
1:15 PM 39.2 °F 27.0 °F 8.6 °F 28% 29.84 in 10.0 mi WNW 32.2 mph 38.0 mph N/A   Clear
1:35 PM 39.2 °F 28.3 °F 8.6 °F 28% 29.85 in 10.0 mi West 25.3 mph 34.5 mph N/A   Clear
1:55 PM 39.2 °F 27.6 °F 3.2 °F 22% 29.84 in 10.0 mi WNW 28.8 mph 42.6 mph N/A   Clear
2:15 PM 37.4 °F 25.0 °F 5.0 °F 26% 29.85 in 10.0 mi WNW 29.9 mph 35.7 mph N/A   Clear
2:35 PM 39.2 °F 28.3 °F 5.0 °F 24% 29.85 in 10.0 mi WNW 25.3 mph 33.4 mph N/A   Clear
2:55 PM 37.4 °F 25.6 °F -0.4 °F 20% 29.85 in 10.0 mi WNW 26.5 mph 32.2 mph N/A   Clear
3:15 PM 37.4 °F 26.4 °F -0.4 °F 20% 29.86 in 10.0 mi WNW 23.0 mph 34.5 mph N/A   Clear
3:35 PM 37.4 °F 26.1 °F 3.2 °F 24% 29.86 in 10.0 mi West 24.2 mph 38.0 mph N/A   Clear
3:55 PM 37.4 °F 26.1 °F 1.4 °F 22% 29.87 in 10.0 mi WNW 24.2 mph 28.8 mph N/A   Clear
4:15 PM 35.6 °F 23.4 °F 3.2 °F 26% 29.87 in 10.0 mi WNW 25.3 mph 29.9 mph N/A   Clear
4:35 PM 35.6 °F 24.2 °F 5.0 °F 28% 29.86 in 10.0 mi WNW 21.9 mph 27.6 mph N/A   Clear
4:55 PM 35.6 °F 24.2 °F 5.0 °F 28% 29.87 in 10.0 mi WNW 21.9 mph 28.8 mph N/A   Clear
5:15 PM 32.0 °F 20.8 °F 5.0 °F 32% 29.87 in 10.0 mi NW 17.3 mph - N/A   Clear
5:35 PM 32.0 °F 21.6 °F 5.0 °F 32% 29.88 in 10.0 mi NW 15.0 mph - N/A   Clear
5:55 PM 32.0 °F 22.1 °F 5.0 °F 32% 29.88 in 10.0 mi NNW 13.8 mph - N/A   Clear
6:15 PM 32.0 °F 21.6 °F 5.0 °F 32% 29.87 in 10.0 mi NNW 15.0 mph - N/A   Clear
6:55 PM 28.4 °F 17.5 °F 5.0 °F 37% 29.86 in 10.0 mi NW 13.8 mph - N/A   Clear
7:15 PM 28.4 °F 16.2 °F 5.0 °F 37% 29.86 in 10.0 mi NW 17.3 mph 23.0 mph N/A   Clear
7:35 PM 28.4 °F 16.2 °F 5.0 °F 37% 29.85 in 10.0 mi NW 17.3 mph 21.9 mph N/A   Clear
7:55 PM 28.4 °F 15.8 °F 3.2 °F 34% 29.85 in 10.0 mi NNW 18.4 mph 25.3 mph N/A   Clear
8:15 PM 30.2 °F 18.1 °F 5.0 °F 34% 29.85 in 10.0 mi NNW 18.4 mph 23.0 mph N/A   Clear
8:35 PM 28.4 °F 18.5 °F 3.2 °F 34% 29.86 in 10.0 mi NNW 11.5 mph - N/A   Clear
8:55 PM 28.4 °F 20.4 °F 5.0 °F 37% 29.85 in 10.0 mi NW 8.1 mph - N/A   Clear
9:15 PM 28.4 °F 18.5 °F 5.0 °F 37% 29.85 in 10.0 mi NW 11.5 mph 19.6 mph N/A   Clear
9:35 PM 26.6 °F 15.7 °F 5.0 °F 40% 29.85 in 10.0 mi NW 12.7 mph - N/A   Clear
9:55 PM 24.8 °F 16.1 °F 5.0 °F 43% 29.86 in 10.0 mi NW 8.1 mph - N/A   Clear
10:15 PM 24.8 °F 14.6 °F 5.0 °F 43% 29.87 in 10.0 mi NW 10.4 mph - N/A   Clear
10:35 PM 24.8 °F 14.0 °F 5.0 °F 43% 29.88 in 10.0 mi NW 11.5 mph - N/A   Clear
10:55 PM 24.8 °F 14.6 °F 5.0 °F 43% 29.88 in 10.0 mi NW 10.4 mph - N/A   Clear
11:15 PM 23.0 °F 11.1 °F 5.0 °F 46% 29.88 in 10.0 mi NNW 12.7 mph - N/A   Clear
11:55 PM 23.0 °F 11.1 °F 5.0 °F 46% 29.88 in 10.0 mi NW 12.7 mph - N/A   Clear